LUCH 5V 1 39727U 14023A 21111.53104729 -.00000269 00000-0 00000-0 0 9993 2 39727 0.5982 50.4213 0005170 17.5381 67.7899 1.00269534 25482 KAZSAT-3 1 39728U 14023B 21111.61503141 .00000060 00000-0 00000-0 0 9992 2 39728 0.0089 235.4515 0000075 279.2967 335.0363 1.00268522 23584 BREEZE-M R/B 1 39729U 14023C 21111.48895288 -.00000124 00000-0 00000+0 0 9995 2 39729 5.5685 62.4253 0611991 164.6090 197.3480 0.92544325 23614 BREEZE-M DEB [TANK] 1 39730U 14023D 21111.50727609 .00000027 00000-0 -51185-4 0 9998 2 39730 47.5523 260.8565 7083105 352.0173 0.8131 2.45112329 60061